Location: ?
(35.2180°N, 139.6392°E)
Time: 21:52:16
(UTC+00:00)

USA 59 Rocket - Pass Details

Date: 05 August 2024
Orbit: 380 x 1730 km, 63.3° (Epoch: 17 September)

Event Time Altitude Azimuth Distance (km) Brightness Sun altitude
Rises 18:42:52 0° 347° (NNW) 2,652 3.6 -13.8°
Reaches altitude 10° 18:45:17 10° 6° (N) 1,924 3.1 -13.4°
Maximum altitude 18:48:32 20° 54° (NE) 1,586 3.3 -12.9°
Drops below altitude 10° 18:52:35 10° 101° (ESE) 2,479 3.9 -12.1°
Sets 18:56:12 0° 117° (ESE) 3,708 4.5 -11.5°
